Regional Weather Roundup
Issued by NWS Charleston, WV

Home | Current Version | Previous Version | Graphics & Text | Print | Product List | Glossary On
Versions: 1 2 3 4 5 6 7 8 9 10 11 12 13 14 15 16 17 18 19 20 21 22 23 24 25 26 27 28 29 30 31 32 33 34 35 36 37 38 39 40 41 42 43 44 45 46 47 48 49 50
000
ASUS41 KRLX 040210
RWRRLX
West Virginia Regional Weather Roundup
National Weather Service Charleston WV
1000 PM EDT MON AUG 03 2015

Note: "fair" indicates few or no clouds below 12,000 feet with no
significant weather and/or obstructions to visibility.

WVZ003-040300-
Northern Panhandle of West Virginia

CITY           SKY/WX    TMP DP  RH WIND       PRES   REMARKS
WHEELING       MOCLDY    76  65  68 SW8       29.84R
$$

WVZ009-040300-
Northwest West Virginia

CITY           SKY/WX    TMP DP  RH WIND       PRES   REMARKS
PARKERSBURG    MOCLDY    76  67  73 SW3       29.88R
$$

WVZ006-040300-
Western West Virginia

CITY           SKY/WX    TMP DP  RH WIND       PRES   REMARKS
HUNTINGTON     TSTM      74  73  97 VRB6      29.90R FOG
$$

WVZ015-040300-
West Central West Virginia

CITY           SKY/WX    TMP DP  RH WIND       PRES   REMARKS
CHARLESTON     CLOUDY    77  67  71 CALM      29.89R
$$

WVZ022-031-040300-
North Central West Virginia

CITY           SKY/WX    TMP DP  RH WIND       PRES   REMARKS
CLARKSBURG     CLOUDY    74  64  71 S3        29.87S
MORGANTOWN     CLOUDY    78  60  53 S3        29.87F
$$

WVZ025-035-042-045-040300-
Southern West Virginia

CITY           SKY/WX    TMP DP  RH WIND       PRES   REMARKS
BECKLEY        PTCLDY    71  61  70 S6        30.00R
LOGAN          NOT AVBL
BLUEFIELD      CLEAR     74  59  59 SW6       30.04S
LEWISBURG      PTCLDY    72  60  66 CALM      29.99R
$$

WVZ047-040300-
Northern Mountains of West Virginia

CITY           SKY/WX    TMP DP  RH WIND       PRES   REMARKS
ELKINS         MOCLDY    66  61  84 CALM      29.94F
$$

WVZ052-040300-
Eastern Panhandle of West Virginia

CITY           SKY/WX    TMP DP  RH WIND       PRES   REMARKS
MARTINSBURG    MOCLDY    76  65  68 CALM      29.83S
PETERSBURG     PTCLDY    69  63  79 CALM      29.88S
$$


USA.gov is the U.S. government's official web portal to all federal, state and local government web resources and services.